Time,TemperatureF,DewpointF,PressureIn,WindDirection,WindDirectionDegrees,WindSpeedMPH,WindSpeedGustMPH,Humidity,HourlyPrecipIn,Conditions,Clouds,dailyrainin,SoftwareType,DateUTC
2013-01-27 00:03:00,57.0,56.0,30.23,WNW,299,0.0,0.0,96,0.00,,,0.01,,2013-01-27 05:03:00,
2013-01-27 00:12:00,57.0,56.0,30.23,WNW,299,0.0,0.0,96,0.00,,,0.01,,2013-01-27 05:12:00,
2013-01-27 00:22:00,57.0,56.0,30.23,WNW,299,0.0,0.0,96,0.00,,,0.01,,2013-01-27 05:22:00,
2013-01-27 00:32:00,56.0,55.0,30.22,WNW,299,0.0,0.0,96,0.00,,,0.01,,2013-01-27 05:32:00,
2013-01-27 00:41:00,56.0,55.0,30.22,WNW,299,0.0,0.0,96,0.00,,,0.01,,2013-01-27 05:41:00,
2013-01-27 00:52:00,56.0,55.0,30.22,WNW,299,0.0,0.0,96,0.00,,,0.01,,2013-01-27 05:52:00,
2013-01-27 01:02:00,57.0,56.0,30.22,WNW,299,0.0,0.0,96,0.00,,,0.01,,2013-01-27 06:02:00,
2013-01-27 01:11:00,57.0,56.0,30.22,WNW,299,0.0,0.0,96,0.00,,,0.01,,2013-01-27 06:11:00,
2013-01-27 01:21:00,56.0,55.0,30.23,WNW,299,0.0,0.0,96,0.00,,,0.01,,2013-01-27 06:21:00,
2013-01-27 01:32:00,57.0,56.0,30.23,WNW,299,0.0,0.0,96,0.00,,,0.01,,2013-01-27 06:32:00,
2013-01-27 01:42:00,57.0,56.0,30.23,WNW,299,0.0,0.0,96,0.00,,,0.01,,2013-01-27 06:42:00,
2013-01-27 01:52:00,57.0,56.0,30.23,WNW,299,0.0,0.0,96,0.00,,,0.01,,2013-01-27 06:52:00,
2013-01-27 02:01:00,56.0,55.0,30.23,WNW,299,0.0,0.0,96,0.00,,,0.01,,2013-01-27 07:01:00,
2013-01-27 02:14:00,56.0,55.0,30.23,WNW,299,0.0,0.0,96,0.00,,,0.01,,2013-01-27 07:14:00,
2013-01-27 02:21:00,56.0,55.0,30.23,WNW,299,0.0,0.0,96,0.00,,,0.01,,2013-01-27 07:21:00,
2013-01-27 02:31:00,56.0,55.0,30.23,WNW,299,0.0,0.0,96,0.00,,,0.01,,2013-01-27 07:31:00,
2013-01-27 02:42:00,56.0,55.0,30.23,WNW,299,0.0,0.0,96,0.00,,,0.01,,2013-01-27 07:42:00,
2013-01-27 02:52:00,56.0,55.0,30.23,WNW,299,0.0,0.0,96,0.00,,,0.01,,2013-01-27 07:52:00,
2013-01-27 03:01:00,55.0,54.0,30.23,WNW,299,0.0,0.0,96,0.00,,,0.01,,2013-01-27 08:01:00,
2013-01-27 03:11:00,55.0,54.0,30.23,WNW,299,0.0,0.0,96,0.00,,,0.01,,2013-01-27 08:11:00,
2013-01-27 03:22:00,55.0,54.0,30.23,WNW,299,0.0,0.0,96,0.00,,,0.01,,2013-01-27 08:22:00,
2013-01-27 03:32:00,55.0,54.0,30.23,WNW,299,0.0,0.0,97,0.00,,,0.01,,2013-01-27 08:32:00,
2013-01-27 03:42:00,55.0,54.0,30.23,WNW,299,0.0,0.0,97,0.00,,,0.01,,2013-01-27 08:42:00,
2013-01-27 03:52:00,54.0,53.0,30.23,WNW,299,0.0,0.0,96,0.00,,,0.01,,2013-01-27 08:52:00,
2013-01-27 04:02:00,54.0,53.0,30.23,WNW,299,0.0,0.0,97,0.00,,,0.01,,2013-01-27 09:02:00,
2013-01-27 04:11:00,54.0,53.0,30.23,WNW,299,0.0,0.0,97,0.00,,,0.01,,2013-01-27 09:11:00,
2013-01-27 04:21:00,54.0,53.0,30.23,WNW,299,0.0,0.0,97,0.00,,,0.01,,2013-01-27 09:21:00,
2013-01-27 04:32:00,54.0,53.0,30.23,WNW,299,0.0,0.0,97,0.00,,,0.01,,2013-01-27 09:32:00,
2013-01-27 04:41:00,54.0,53.0,30.23,WNW,299,0.0,0.0,97,0.00,,,0.01,,2013-01-27 09:41:00,
2013-01-27 04:52:00,54.0,53.0,30.23,WNW,299,0.0,0.0,97,0.00,,,0.01,,2013-01-27 09:52:00,
2013-01-27 05:01:00,54.0,53.0,30.23,WNW,299,0.0,0.0,97,0.00,,,0.01,,2013-01-27 10:01:00,
2013-01-27 05:11:00,55.0,54.0,30.22,WNW,299,0.0,0.0,97,0.00,,,0.01,,2013-01-27 10:11:00,
2013-01-27 05:21:00,55.0,54.0,30.22,WNW,299,0.0,0.0,97,0.00,,,0.01,,2013-01-27 10:21:00,
2013-01-27 05:32:00,54.0,53.0,30.23,WNW,299,0.0,0.0,97,0.00,,,0.00,,2013-01-27 10:32:00,
2013-01-27 05:42:00,54.0,53.0,30.23,WNW,299,0.0,0.0,97,0.00,,,0.00,,2013-01-27 10:42:00,
2013-01-27 05:52:00,54.0,53.0,30.23,WNW,299,0.0,0.0,97,0.00,,,0.00,,2013-01-27 10:52:00,
2013-01-27 06:01:00,54.0,53.0,30.24,WNW,299,0.0,0.0,97,0.00,,,0.00,,2013-01-27 11:01:00,
2013-01-27 06:11:00,54.0,53.0,30.24,WNW,299,0.0,0.0,97,0.00,,,0.00,,2013-01-27 11:11:00,
2013-01-27 06:21:00,54.0,53.0,30.24,WNW,299,0.0,0.0,97,0.00,,,0.00,,2013-01-27 11:21:00,
2013-01-27 06:32:00,54.0,53.0,30.25,WNW,299,0.0,0.0,97,0.00,,,0.00,,2013-01-27 11:32:00,
2013-01-27 06:42:00,54.0,53.0,30.25,WNW,299,0.0,0.0,97,0.00,,,0.00,,2013-01-27 11:42:00,
2013-01-27 06:52:00,54.0,53.0,30.25,WNW,299,0.0,0.0,97,0.00,,,0.00,,2013-01-27 11:52:00,
2013-01-27 07:02:00,53.0,52.0,30.26,WNW,299,0.0,0.0,97,0.00,,,0.00,,2013-01-27 12:02:00,
2013-01-27 07:12:00,53.0,52.0,30.26,WNW,299,0.0,0.0,97,0.00,,,0.00,,2013-01-27 12:12:00,
2013-01-27 07:22:00,53.0,52.0,30.26,WNW,299,0.0,0.0,97,0.00,,,0.00,,2013-01-27 12:22:00,
2013-01-27 07:32:00,54.0,53.0,30.27,WNW,299,0.0,0.0,97,0.00,,,0.00,,2013-01-27 12:32:00,
2013-01-27 07:42:00,54.0,53.0,30.27,WNW,299,0.0,0.0,97,0.00,,,0.00,,2013-01-27 12:42:00,
2013-01-27 07:52:00,54.0,53.0,30.27,WNW,299,0.0,0.0,97,0.00,,,0.00,,2013-01-27 12:52:00,
2013-01-27 08:02:00,53.0,52.0,30.27,WNW,299,0.0,0.0,97,0.00,,,0.00,,2013-01-27 13:02:00,
2013-01-27 08:11:00,53.0,52.0,30.27,WNW,299,0.0,0.0,97,0.00,,,0.00,,2013-01-27 13:11:00,
2013-01-27 08:22:00,53.0,52.0,30.27,WNW,299,0.0,0.0,97,0.00,,,0.00,,2013-01-27 13:22:00,
2013-01-27 08:32:00,55.0,54.0,30.27,WNW,299,0.0,0.0,97,0.00,,,0.00,,2013-01-27 13:32:00,
2013-01-27 08:42:00,55.0,54.0,30.27,WNW,299,0.0,0.0,97,0.00,,,0.00,,2013-01-27 13:42:00,
2013-01-27 08:52:00,55.0,54.0,30.27,WNW,299,0.0,1.0,97,0.00,,,0.00,,2013-01-27 13:52:00,
2013-01-27 09:02:00,57.0,56.0,30.28,ENE,57,0.0,3.0,97,0.00,,,0.00,,2013-01-27 14:02:00,
2013-01-27 09:12:00,57.0,56.0,30.28,ENE,57,0.0,3.0,97,0.00,,,0.00,,2013-01-27 14:12:00,
2013-01-27 09:22:00,58.0,57.0,30.28,ENE,60,0.0,1.0,97,0.00,,,0.00,,2013-01-27 14:22:00,
2013-01-27 09:32:00,59.0,58.0,30.29,East,88,0.0,3.0,97,0.00,,,0.00,,2013-01-27 14:32:00,
2013-01-27 09:42:00,59.0,58.0,30.29,East,88,0.0,3.0,97,0.00,,,0.00,,2013-01-27 14:42:00,
2013-01-27 09:53:00,60.0,59.0,30.29,ENE,73,1.0,3.0,97,0.00,,,0.00,,2013-01-27 14:53:00,
2013-01-27 10:02:00,61.0,60.0,30.29,ENE,74,1.0,4.0,97,0.00,,,0.00,,2013-01-27 15:02:00,
2013-01-27 10:12:00,61.0,60.0,30.29,ENE,74,1.0,4.0,97,0.00,,,0.00,,2013-01-27 15:12:00,
2013-01-27 10:22:00,62.0,61.0,30.29,East,82,1.0,6.0,96,0.00,,,0.00,,2013-01-27 15:22:00,
2013-01-27 10:32:00,65.0,62.0,30.30,ENE,75,2.0,4.0,91,0.00,,,0.00,,2013-01-27 15:32:00,
2013-01-27 10:42:00,65.0,62.0,30.30,ENE,75,2.0,4.0,91,0.00,,,0.00,,2013-01-27 15:42:00,
2013-01-27 10:53:00,66.0,62.0,30.30,East,101,1.0,6.0,87,0.00,,,0.00,,2013-01-27 15:53:00,
2013-01-27 11:02:00,68.0,62.0,30.30,ENE,66,1.0,5.0,82,0.00,,,0.00,,2013-01-27 16:02:00,
2013-01-27 11:12:00,68.0,62.0,30.30,ENE,66,1.0,5.0,82,0.00,,,0.00,,2013-01-27 16:12:00,
2013-01-27 11:22:00,70.0,62.0,30.30,East,98,0.0,4.0,77,0.00,,,0.00,,2013-01-27 16:22:00,
2013-01-27 11:32:00,72.0,62.0,30.29,ENE,69,2.0,4.0,70,0.00,,,0.00,,2013-01-27 16:32:00,
2013-01-27 11:42:00,72.0,62.0,30.29,ENE,69,2.0,4.0,70,0.00,,,0.00,,2013-01-27 16:42:00,
2013-01-27 11:53:00,72.0,60.0,30.29,ENE,76,2.0,7.0,66,0.00,,,0.00,,2013-01-27 16:53:00,
2013-01-27 12:02:00,74.0,61.0,30.29,NE,36,0.0,5.0,64,0.00,,,0.00,,2013-01-27 17:02:00,
2013-01-27 12:12:00,74.0,61.0,30.29,NE,36,0.0,5.0,64,0.00,,,0.00,,2013-01-27 17:12:00,
2013-01-27 12:22:00,74.0,60.0,30.28,ENE,59,3.0,5.0,61,0.00,,,0.00,,2013-01-27 17:22:00,
2013-01-27 12:32:00,76.0,60.0,30.27,ENE,60,0.0,5.0,58,0.00,,,0.00,,2013-01-27 17:32:00,
2013-01-27 12:42:00,76.0,60.0,30.27,ENE,60,0.0,5.0,58,0.00,,,0.00,,2013-01-27 17:42:00,
2013-01-27 12:53:00,76.0,59.0,30.27,ESE,113,0.0,4.0,55,0.00,,,0.00,,2013-01-27 17:53:00,
2013-01-27 13:02:00,76.0,58.0,30.26,East,90,0.0,4.0,54,0.00,,,0.00,,2013-01-27 18:02:00,
2013-01-27 13:12:00,76.0,58.0,30.26,East,90,0.0,4.0,54,0.00,,,0.00,,2013-01-27 18:12:00,
2013-01-27 13:22:00,75.0,57.0,30.25,NE,53,1.0,7.0,53,0.00,,,0.00,,2013-01-27 18:22:00,
2013-01-27 13:32:00,76.0,56.0,30.24,East,86,1.0,5.0,50,0.00,,,0.00,,2013-01-27 18:32:00,
2013-01-27 13:42:00,76.0,56.0,30.24,East,86,1.0,5.0,50,0.00,,,0.00,,2013-01-27 18:42:00,
2013-01-27 13:53:00,76.0,57.0,30.24,ENE,67,1.0,5.0,51,0.00,,,0.00,,2013-01-27 18:53:00,
2013-01-27 14:02:00,76.0,57.0,30.23,SE,142,2.0,4.0,52,0.00,,,0.00,,2013-01-27 19:02:00,
2013-01-27 14:12:00,76.0,57.0,30.23,SE,142,2.0,4.0,52,0.00,,,0.00,,2013-01-27 19:12:00,
2013-01-27 14:22:00,76.0,57.0,30.23,East,100,1.0,5.0,52,0.00,,,0.00,,2013-01-27 19:22:00,
2013-01-27 14:32:00,75.0,56.0,30.22,ENE,63,0.0,3.0,52,0.00,,,0.00,,2013-01-27 19:32:00,
2013-01-27 14:42:00,75.0,56.0,30.22,ENE,63,0.0,3.0,52,0.00,,,0.00,,2013-01-27 19:42:00,
2013-01-27 14:52:00,75.0,56.0,30.22,SSE,149,0.0,2.0,52,0.00,,,0.00,,2013-01-27 19:52:00,
2013-01-27 15:02:00,76.0,57.0,30.22,ENE,58,1.0,6.0,51,0.00,,,0.00,,2013-01-27 20:02:00,
2013-01-27 15:12:00,76.0,57.0,30.22,ENE,58,1.0,6.0,51,0.00,,,0.00,,2013-01-27 20:12:00,
2013-01-27 15:22:00,76.0,58.0,30.21,SE,136,1.0,4.0,53,0.00,,,0.00,,2013-01-27 20:22:00,
2013-01-27 15:33:00,76.0,56.0,30.21,ENE,74,0.0,3.0,50,0.00,,,0.00,,2013-01-27 20:33:00,
2013-01-27 15:42:00,76.0,56.0,30.21,ENE,74,0.0,3.0,50,0.00,,,0.00,,2013-01-27 20:42:00,
2013-01-27 15:52:00,76.0,57.0,30.20,ESE,103,0.0,5.0,51,0.00,,,0.00,,2013-01-27 20:52:00,
2013-01-27 16:02:00,76.0,57.0,30.20,ENE,60,0.0,3.0,51,0.00,,,0.00,,2013-01-27 21:02:00,
2013-01-27 16:12:00,76.0,57.0,30.20,ENE,60,0.0,3.0,51,0.00,,,0.00,,2013-01-27 21:12:00,
2013-01-27 16:22:00,76.0,56.0,30.20,NE,51,0.0,1.0,50,0.00,,,0.00,,2013-01-27 21:22:00,
2013-01-27 16:33:00,76.0,56.0,30.21,SSE,157,0.0,4.0,50,0.00,,,0.00,,2013-01-27 21:33:00,
2013-01-27 16:42:00,76.0,56.0,30.21,SSE,157,0.0,4.0,50,0.00,,,0.00,,2013-01-27 21:42:00,
2013-01-27 16:52:00,75.0,55.0,30.21,East,86,1.0,4.0,49,0.00,,,0.00,,2013-01-27 21:52:00,
2013-01-27 17:02:00,75.0,55.0,30.21,NE,55,0.0,1.0,50,0.00,,,0.00,,2013-01-27 22:02:00,
2013-01-27 17:12:00,75.0,55.0,30.21,NE,55,0.0,1.0,50,0.00,,,0.00,,2013-01-27 22:12:00,
2013-01-27 17:22:00,73.0,61.0,30.21,West,272,0.0,2.0,65,0.00,,,0.00,,2013-01-27 22:22:00,
2013-01-27 17:32:00,72.0,62.0,30.22,West,272,1.0,3.0,71,0.00,,,0.00,,2013-01-27 22:32:00,
2013-01-27 17:42:00,72.0,62.0,30.22,West,272,1.0,3.0,71,0.00,,,0.00,,2013-01-27 22:42:00,
2013-01-27 17:52:00,70.0,61.0,30.22,West,273,0.0,2.0,74,0.00,,,0.00,,2013-01-27 22:52:00,
2013-01-27 18:02:00,69.0,61.0,30.23,West,273,0.0,3.0,76,0.00,,,0.00,,2013-01-27 23:02:00,
2013-01-27 18:12:00,69.0,61.0,30.23,West,273,0.0,3.0,76,0.00,,,0.00,,2013-01-27 23:12:00,
2013-01-27 18:22:00,68.0,61.0,30.23,West,273,0.0,3.0,78,0.00,,,0.00,,2013-01-27 23:22:00,
2013-01-27 18:32:00,67.0,61.0,30.24,West,272,0.0,2.0,80,0.00,,,0.00,,2013-01-27 23:32:00,
2013-01-27 18:42:00,67.0,61.0,30.24,West,272,0.0,2.0,80,0.00,,,0.00,,2013-01-27 23:42:00,
2013-01-27 18:53:00,66.0,61.0,30.24,West,273,0.0,1.0,83,0.00,,,0.00,,2013-01-27 23:53:00,
2013-01-27 19:02:00,65.0,61.0,30.24,West,273,0.0,0.0,86,0.00,,,0.00,,2013-01-28 00:02:00,
2013-01-27 19:11:00,65.0,61.0,30.24,West,273,0.0,0.0,86,0.00,,,0.00,,2013-01-28 00:11:00,
2013-01-27 19:21:00,64.0,60.0,30.25,West,273,0.0,1.0,88,0.00,,,0.00,,2013-01-28 00:21:00,
2013-01-27 19:32:00,64.0,61.0,30.25,West,273,0.0,1.0,89,0.00,,,0.00,,2013-01-28 00:32:00,
2013-01-27 19:42:00,64.0,61.0,30.25,West,273,0.0,1.0,89,0.00,,,0.00,,2013-01-28 00:42:00,
2013-01-27 19:52:00,63.0,60.0,30.26,West,272,0.0,2.0,90,0.00,,,0.00,,2013-01-28 00:52:00,
2013-01-27 20:02:00,63.0,60.0,30.26,West,270,0.0,0.0,91,0.00,,,0.00,,2013-01-28 01:02:00,
2013-01-27 20:11:00,63.0,60.0,30.26,West,270,0.0,0.0,91,0.00,,,0.00,,2013-01-28 01:11:00,
2013-01-27 20:22:00,62.0,59.0,30.26,West,270,0.0,0.0,91,0.00,,,0.00,,2013-01-28 01:22:00,
2013-01-27 20:33:00,62.0,60.0,30.27,West,269,0.0,0.0,92,0.00,,,0.00,,2013-01-28 01:33:00,
2013-01-27 20:42:00,62.0,60.0,30.27,West,269,0.0,0.0,92,0.00,,,0.00,,2013-01-28 01:42:00,
2013-01-27 20:52:00,61.0,59.0,30.27,West,270,0.0,0.0,92,0.00,,,0.00,,2013-01-28 01:52:00,
2013-01-27 21:02:00,61.0,59.0,30.27,West,269,0.0,1.0,93,0.00,,,0.00,,2013-01-28 02:02:00,
2013-01-27 21:11:00,61.0,59.0,30.27,West,269,0.0,1.0,93,0.00,,,0.00,,2013-01-28 02:11:00,
2013-01-27 21:22:00,61.0,58.0,30.27,West,270,0.0,0.0,91,0.00,,,0.00,,2013-01-28 02:22:00,
2013-01-27 21:32:00,61.0,58.0,30.27,West,269,0.0,0.0,90,0.00,,,0.00,,2013-01-28 02:32:00,
2013-01-27 21:42:00,61.0,58.0,30.27,West,269,0.0,0.0,90,0.00,,,0.00,,2013-01-28 02:42:00,
2013-01-27 21:52:00,61.0,58.0,30.27,West,270,0.0,0.0,89,0.00,,,0.00,,2013-01-28 02:52:00,
2013-01-27 22:02:00,62.0,57.0,30.28,West,270,0.0,0.0,85,0.00,,,0.00,,2013-01-28 03:02:00,
2013-01-27 22:12:00,62.0,57.0,30.28,West,270,0.0,0.0,85,0.00,,,0.00,,2013-01-28 03:12:00,
2013-01-27 22:22:00,62.0,57.0,30.27,West,270,0.0,0.0,84,0.00,,,0.00,,2013-01-28 03:22:00,
2013-01-27 22:32:00,63.0,58.0,30.28,East,79,0.0,3.0,83,0.00,,,0.00,,2013-01-28 03:32:00,
2013-01-27 22:42:00,63.0,58.0,30.28,East,79,0.0,3.0,83,0.00,,,0.00,,2013-01-28 03:42:00,
2013-01-27 22:53:00,62.0,57.0,30.28,ENE,78,0.0,2.0,84,0.00,,,0.00,,2013-01-28 03:53:00,
2013-01-27 23:02:00,62.0,57.0,30.28,ENE,78,0.0,0.0,85,0.00,,,0.00,,2013-01-28 04:02:00,
2013-01-27 23:12:00,62.0,57.0,30.28,ENE,78,0.0,0.0,85,0.00,,,0.00,,2013-01-28 04:12:00,
2013-01-27 23:22:00,62.0,57.0,30.28,ENE,78,0.0,0.0,85,0.00,,,0.00,,2013-01-28 04:22:00,
2013-01-27 23:32:00,61.0,57.0,30.28,ENE,78,0.0,1.0,86,0.00,,,0.00,,2013-01-28 04:32:00,
2013-01-27 23:42:00,61.0,57.0,30.28,ENE,78,0.0,1.0,86,0.00,,,0.00,,2013-01-28 04:42:00,
2013-01-27 23:52:00,61.0,57.0,30.27,ENE,78,0.0,2.0,87,0.00,,,0.00,,2013-01-28 04:52:00,